Year,Month,Day,Hour,Minute,Value (Times are PST for temperature in C)
2017,03,12,00,00,10.30
2017,03,12,00,01,10.30
2017,03,12,00,02,10.30
2017,03,12,00,03,10.30
2017,03,12,00,04,10.30
2017,03,12,00,05,10.30
2017,03,12,00,06,10.30
2017,03,12,00,07,10.30
2017,03,12,00,08,10.30
2017,03,12,00,09,10.30
2017,03,12,00,10,10.30
2017,03,12,00,11,10.30
2017,03,12,00,12,10.30
2017,03,12,00,13,10.30
2017,03,12,00,14,10.30
2017,03,12,00,15,10.30
2017,03,12,00,16,10.30
2017,03,12,00,17,10.30
2017,03,12,00,18,10.30
2017,03,12,00,19,10.30
2017,03,12,00,20,10.30
2017,03,12,00,21,10.30
2017,03,12,00,22,10.30
2017,03,12,00,23,10.30
2017,03,12,00,24,10.30
2017,03,12,00,25,10.30
2017,03,12,00,26,10.30
2017,03,12,00,27,10.30
2017,03,12,00,28,10.30
2017,03,12,00,29,10.30
2017,03,12,00,30,10.30
2017,03,12,00,31,10.30
2017,03,12,00,32,10.30
2017,03,12,00,33,10.30
2017,03,12,00,34,10.30
2017,03,12,00,35,10.30
2017,03,12,00,36,10.30
2017,03,12,00,37,10.30
2017,03,12,00,38,10.30
2017,03,12,00,39,10.30
2017,03,12,00,40,10.30
2017,03,12,00,41,10.30
2017,03,12,00,42,10.30
2017,03,12,00,43,10.30
2017,03,12,00,44,10.30
2017,03,12,00,45,10.30
2017,03,12,00,46,10.30
2017,03,12,00,47,10.30
2017,03,12,00,48,10.30
2017,03,12,00,49,10.30
2017,03,12,00,50,10.30
2017,03,12,00,51,10.30
2017,03,12,00,52,10.30
2017,03,12,00,53,10.30
2017,03,12,00,54,10.30
2017,03,12,00,55,10.30
2017,03,12,00,56,10.30
2017,03,12,00,57,10.30
2017,03,12,00,58,10.30
2017,03,12,00,59,10.30
2017,03,12,01,00,10.30
2017,03,12,01,01,10.30
2017,03,12,01,02,10.30
2017,03,12,01,03,10.30
2017,03,12,01,04,10.30
2017,03,12,01,05,10.30
2017,03,12,01,06,10.30
2017,03,12,01,07,10.30
2017,03,12,01,08,10.30
2017,03,12,01,09,10.30
2017,03,12,01,10,10.30
2017,03,12,01,11,10.30
2017,03,12,01,12,10.30
2017,03,12,01,13,10.30
2017,03,12,01,14,10.30
2017,03,12,01,15,10.30
2017,03,12,01,16,10.30
2017,03,12,01,17,10.30
2017,03,12,01,18,10.30
2017,03,12,01,19,10.30
2017,03,12,01,20,10.30
2017,03,12,01,21,10.30
2017,03,12,01,22,10.30
2017,03,12,01,23,10.30
2017,03,12,01,24,10.30
2017,03,12,01,25,10.30
2017,03,12,01,26,10.30
2017,03,12,01,27,10.30
2017,03,12,01,28,10.30
2017,03,12,01,29,10.30
2017,03,12,01,30,10.30
2017,03,12,01,31,10.30
2017,03,12,01,32,10.30
2017,03,12,01,33,10.30
2017,03,12,01,34,10.30
2017,03,12,01,35,10.30
2017,03,12,01,36,10.30
2017,03,12,01,37,10.30
2017,03,12,01,38,10.30
2017,03,12,01,39,10.30
2017,03,12,01,40,10.30
2017,03,12,01,41,10.30
2017,03,12,01,42,10.30
2017,03,12,01,43,10.30
2017,03,12,01,44,10.30
2017,03,12,01,45,10.30
2017,03,12,01,46,10.30
2017,03,12,01,47,10.30
2017,03,12,01,48,10.30
2017,03,12,01,49,10.30
2017,03,12,01,50,10.30
2017,03,12,01,51,10.30
2017,03,12,01,52,10.30
2017,03,12,01,53,10.30
2017,03,12,01,54,10.30
2017,03,12,01,55,10.30
2017,03,12,01,56,10.30
2017,03,12,01,57,10.30
2017,03,12,01,58,10.30
2017,03,12,01,59,10.30
2017,03,12,03,00,10.30
2017,03,12,03,01,10.30
2017,03,12,03,02,10.30
2017,03,12,03,03,10.30
2017,03,12,03,04,10.30
2017,03,12,03,05,10.30
2017,03,12,03,06,10.30
2017,03,12,03,07,10.30
2017,03,12,03,08,10.30
2017,03,12,03,09,10.30
2017,03,12,03,10,10.30
2017,03,12,03,11,10.30
2017,03,12,03,12,10.30
2017,03,12,03,13,10.30
2017,03,12,03,14,10.30
2017,03,12,03,15,10.30
2017,03,12,03,16,10.30
2017,03,12,03,17,10.20
2017,03,12,03,18,10.30
2017,03,12,03,19,10.30
2017,03,12,03,20,10.30
2017,03,12,03,21,10.30
2017,03,12,03,22,10.30
2017,03,12,03,23,10.30
2017,03,12,03,24,10.30
2017,03,12,03,25,10.30
2017,03,12,03,26,10.30
2017,03,12,03,27,10.30
2017,03,12,03,28,10.30
2017,03,12,03,29,10.30
2017,03,12,03,30,10.30
2017,03,12,03,31,10.30
2017,03,12,03,32,10.30
2017,03,12,03,33,10.30
2017,03,12,03,34,10.30
2017,03,12,03,35,10.30
2017,03,12,03,36,10.30
2017,03,12,03,37,10.30
2017,03,12,03,38,10.30
2017,03,12,03,39,10.30
2017,03,12,03,40,10.30
2017,03,12,03,41,10.30
2017,03,12,03,42,10.30
2017,03,12,03,43,10.30
2017,03,12,03,44,10.30
2017,03,12,03,45,10.30
2017,03,12,03,46,10.30
2017,03,12,03,47,10.30
2017,03,12,03,48,10.30
2017,03,12,03,49,10.30
2017,03,12,03,50,10.30
2017,03,12,03,51,10.30
2017,03,12,03,52,10.30
2017,03,12,03,53,10.30
2017,03,12,03,54,10.30
2017,03,12,03,55,10.30
2017,03,12,03,56,10.30
2017,03,12,03,57,10.30
2017,03,12,03,58,10.30
2017,03,12,03,59,10.30
2017,03,12,04,00,10.30
2017,03,12,04,01,10.30
2017,03,12,04,02,10.30
2017,03,12,04,03,10.30
2017,03,12,04,04,10.30
2017,03,12,04,05,10.30
2017,03,12,04,06,10.30
2017,03,12,04,07,10.30
2017,03,12,04,08,10.30
2017,03,12,04,09,10.30
2017,03,12,04,10,10.30
2017,03,12,04,11,10.30
2017,03,12,04,12,10.30
2017,03,12,04,13,10.30
2017,03,12,04,14,10.30
2017,03,12,04,15,10.30
2017,03,12,04,16,10.30
2017,03,12,04,17,10.30
2017,03,12,04,18,10.30
2017,03,12,04,19,10.30
2017,03,12,04,20,10.30
2017,03,12,04,21,10.30
2017,03,12,04,22,10.30
2017,03,12,04,23,10.30
2017,03,12,04,24,10.30
2017,03,12,04,25,10.30
2017,03,12,04,26,10.30
2017,03,12,04,27,10.30
2017,03,12,04,28,10.30
2017,03,12,04,29,10.30
2017,03,12,04,30,10.30
2017,03,12,04,31,10.30
2017,03,12,04,32,10.30
2017,03,12,04,33,10.30
2017,03,12,04,34,10.30
2017,03,12,04,35,10.30
2017,03,12,04,36,10.30
2017,03,12,04,37,10.30
2017,03,12,04,38,10.30
2017,03,12,04,39,10.30
2017,03,12,04,40,10.30
2017,03,12,04,41,10.30
2017,03,12,04,42,10.30
2017,03,12,04,43,10.30
2017,03,12,04,44,10.30
2017,03,12,04,45,10.30
2017,03,12,04,46,10.30
2017,03,12,04,47,10.30
2017,03,12,04,48,10.30
2017,03,12,04,49,10.30
2017,03,12,04,50,10.30
2017,03,12,04,51,10.30
2017,03,12,04,52,10.30
2017,03,12,04,53,10.30
2017,03,12,04,54,10.30
2017,03,12,04,55,10.30
2017,03,12,04,56,10.30
2017,03,12,04,57,10.30
2017,03,12,04,58,10.30
2017,03,12,04,59,10.30
2017,03,12,05,00,10.30
2017,03,12,05,01,10.30
2017,03,12,05,02,10.20
2017,03,12,05,03,10.20
2017,03,12,05,04,10.20
2017,03,12,05,05,10.20
2017,03,12,05,06,10.20
2017,03,12,05,07,10.20
2017,03,12,05,08,10.20
2017,03,12,05,09,10.20
2017,03,12,05,10,10.20
2017,03,12,05,11,10.20
2017,03,12,05,12,10.20
2017,03,12,05,13,10.20
2017,03,12,05,14,10.20
2017,03,12,05,15,10.20
2017,03,12,05,16,10.20
2017,03,12,05,17,10.20
2017,03,12,05,18,10.20
2017,03,12,05,19,10.10
2017,03,12,05,20,10.10
2017,03,12,05,21,10.10
2017,03,12,05,22,10.10
2017,03,12,05,23,10.10
2017,03,12,05,24,10.10
2017,03,12,05,25,10.10
2017,03,12,05,26,10.10
2017,03,12,05,27,10.10
2017,03,12,05,28,10.10
2017,03,12,05,29,10.00
2017,03,12,05,30,10.10
2017,03,12,05,31,10.10
2017,03,12,05,32,10.00
2017,03,12,05,33,9.90
2017,03,12,05,34,9.90
2017,03,12,05,35,9.90
2017,03,12,05,36,9.90
2017,03,12,05,37,9.90
2017,03,12,05,38,9.90
2017,03,12,05,39,9.90
2017,03,12,05,40,9.90
2017,03,12,05,41,9.90
2017,03,12,05,42,9.90
2017,03,12,05,43,9.90
2017,03,12,05,44,9.90
2017,03,12,05,45,9.90
2017,03,12,05,46,9.90
2017,03,12,05,47,9.90
2017,03,12,05,48,9.90
2017,03,12,05,49,9.90
2017,03,12,05,50,9.90
2017,03,12,05,51,9.80
2017,03,12,05,52,9.80
2017,03,12,05,53,9.80
2017,03,12,05,54,9.80
2017,03,12,05,55,9.80
2017,03,12,05,56,9.80
2017,03,12,05,57,9.80
2017,03,12,05,58,9.80
2017,03,12,05,59,9.80
2017,03,12,06,00,9.80
2017,03,12,06,01,9.80
2017,03,12,06,02,9.80
2017,03,12,06,03,9.80
2017,03,12,06,04,9.80
2017,03,12,06,05,9.80
2017,03,12,06,06,9.80
2017,03,12,06,07,9.80
2017,03,12,06,08,9.70
2017,03,12,06,09,9.70
2017,03,12,06,10,9.70
2017,03,12,06,11,9.70
2017,03,12,06,12,9.70
2017,03,12,06,13,9.70
2017,03,12,06,14,9.70
2017,03,12,06,15,9.70
2017,03,12,06,16,9.70
2017,03,12,06,17,9.60
2017,03,12,06,18,9.60
2017,03,12,06,19,9.60
2017,03,12,06,20,9.60
2017,03,12,06,21,9.60
2017,03,12,06,22,9.60
2017,03,12,06,23,9.50
2017,03,12,06,24,9.50
2017,03,12,06,25,9.50
2017,03,12,06,26,9.50
2017,03,12,06,27,9.50
2017,03,12,06,28,9.50
2017,03,12,06,29,9.50
2017,03,12,06,30,9.50
2017,03,12,06,31,9.50
2017,03,12,06,32,9.50
2017,03,12,06,33,9.50
2017,03,12,06,34,9.50
2017,03,12,06,35,9.40
2017,03,12,06,36,9.50
2017,03,12,06,37,9.50
2017,03,12,06,38,9.50
2017,03,12,06,39,9.50
2017,03,12,06,40,9.50
2017,03,12,06,41,9.50
2017,03,12,06,42,9.50
2017,03,12,06,43,9.50
2017,03,12,06,44,9.50
2017,03,12,06,45,9.50
2017,03,12,06,46,9.50
2017,03,12,06,47,9.50
2017,03,12,06,48,9.50
2017,03,12,06,49,9.40
2017,03,12,06,50,9.40
2017,03,12,06,51,9.40
2017,03,12,06,52,9.40
2017,03,12,06,53,9.40
2017,03,12,06,54,9.40
2017,03,12,06,55,9.40
2017,03,12,06,56,9.40
2017,03,12,06,57,9.40
2017,03,12,06,58,9.40
2017,03,12,06,59,9.40
2017,03,12,07,00,9.50
2017,03,12,07,01,9.50
2017,03,12,07,02,9.50
2017,03,12,07,03,9.50
2017,03,12,07,04,9.50
2017,03,12,07,05,9.50
2017,03,12,07,06,9.50
2017,03,12,07,07,9.50
2017,03,12,07,08,9.50
2017,03,12,07,09,9.50
2017,03,12,07,10,9.50
2017,03,12,07,11,9.60
2017,03,12,07,12,9.60
2017,03,12,07,13,9.60
2017,03,12,07,14,9.60
2017,03,12,07,15,9.60
2017,03,12,07,16,9.60
2017,03,12,07,17,9.70
2017,03,12,07,18,9.70
2017,03,12,07,19,9.70
2017,03,12,07,20,9.70
2017,03,12,07,21,9.70
2017,03,12,07,22,9.70
2017,03,12,07,23,9.70
2017,03,12,07,24,9.70
2017,03,12,07,25,9.70
2017,03,12,07,26,9.70
2017,03,12,07,27,9.70
2017,03,12,07,28,9.70
2017,03,12,07,29,9.70
2017,03,12,07,30,9.70
2017,03,12,07,31,9.70
2017,03,12,07,32,9.70
2017,03,12,07,33,9.70
2017,03,12,07,34,9.70
2017,03,12,07,35,9.70
2017,03,12,07,36,9.70
2017,03,12,07,37,9.70
2017,03,12,07,38,9.70
2017,03,12,07,39,9.70
2017,03,12,07,40,9.70
2017,03,12,07,41,9.70
2017,03,12,07,42,9.70
2017,03,12,07,43,9.70
2017,03,12,07,44,9.70
2017,03,12,07,45,9.70
2017,03,12,07,46,9.70
2017,03,12,07,47,9.70
2017,03,12,07,48,9.70
2017,03,12,07,49,9.70
2017,03,12,07,50,9.70
2017,03,12,07,51,9.70
2017,03,12,07,52,9.70
2017,03,12,07,53,9.70
2017,03,12,07,54,9.70
2017,03,12,07,55,9.70
2017,03,12,07,56,9.70
2017,03,12,07,57,9.70
2017,03,12,07,58,9.70
2017,03,12,07,59,9.70
2017,03,12,08,00,9.70
2017,03,12,08,01,9.70
2017,03,12,08,02,9.70
2017,03,12,08,03,9.70
2017,03,12,08,04,9.70
2017,03,12,08,05,9.70
2017,03,12,08,06,9.70
2017,03,12,08,07,9.70
2017,03,12,08,08,9.70
2017,03,12,08,09,9.70
2017,03,12,08,10,9.70
2017,03,12,08,11,9.70
2017,03,12,08,12,9.70
2017,03,12,08,13,9.70
2017,03,12,08,14,9.70
2017,03,12,08,15,9.70
2017,03,12,08,16,9.70
2017,03,12,08,17,9.70
2017,03,12,08,18,9.70
2017,03,12,08,19,9.70
2017,03,12,08,20,9.70
2017,03,12,08,21,9.80
2017,03,12,08,22,9.80
2017,03,12,08,23,9.80
2017,03,12,08,24,9.80
2017,03,12,08,25,9.80
2017,03,12,08,26,9.80
2017,03,12,08,27,9.80
2017,03,12,08,28,9.80
2017,03,12,08,29,9.80
2017,03,12,08,30,9.80
2017,03,12,08,31,9.90
2017,03,12,08,32,9.90
2017,03,12,08,33,9.90
2017,03,12,08,34,9.90
2017,03,12,08,35,9.90
2017,03,12,08,36,9.90
2017,03,12,08,37,9.90
2017,03,12,08,38,9.90
2017,03,12,08,39,9.90
2017,03,12,08,40,9.90
2017,03,12,08,41,9.90
2017,03,12,08,42,10.00
2017,03,12,08,43,10.00
2017,03,12,08,44,10.10
2017,03,12,08,45,10.10
2017,03,12,08,46,10.10
2017,03,12,08,47,10.10
2017,03,12,08,48,10.10
2017,03,12,08,49,10.10
2017,03,12,08,50,10.10
2017,03,12,08,51,10.10
2017,03,12,08,52,10.10
2017,03,12,08,53,10.10
2017,03,12,08,54,10.10
2017,03,12,08,55,10.10
2017,03,12,08,56,10.20
2017,03,12,08,57,10.20
2017,03,12,08,58,10.20
2017,03,12,08,59,10.20
2017,03,12,09,00,10.20
2017,03,12,09,01,10.20
2017,03,12,09,02,10.20
2017,03,12,09,03,10.20
2017,03,12,09,04,10.20
2017,03,12,09,05,10.20
2017,03,12,09,06,10.20
2017,03,12,09,07,10.30
2017,03,12,09,08,10.30
2017,03,12,09,09,10.30
2017,03,12,09,10,10.30
2017,03,12,09,11,10.30
2017,03,12,09,12,10.30
2017,03,12,09,13,10.30
2017,03,12,09,14,10.30
2017,03,12,09,15,10.30
2017,03,12,09,16,10.30
2017,03,12,09,17,10.40
2017,03,12,09,18,10.40
2017,03,12,09,19,10.40
2017,03,12,09,20,10.40
2017,03,12,09,21,10.40
2017,03,12,09,22,10.40
2017,03,12,09,23,10.40
2017,03,12,09,24,10.40
2017,03,12,09,25,10.40
2017,03,12,09,26,10.40
2017,03,12,09,27,10.40
2017,03,12,09,28,10.40
2017,03,12,09,29,10.40
2017,03,12,09,30,10.40
2017,03,12,09,31,10.50
2017,03,12,09,32,10.60
2017,03,12,09,33,10.60
2017,03,12,09,34,10.60
2017,03,12,09,35,10.60
2017,03,12,09,36,10.60
2017,03,12,09,37,10.60
2017,03,12,09,38,10.60
2017,03,12,09,39,10.60
2017,03,12,09,40,10.60
2017,03,12,09,41,10.60
2017,03,12,09,42,10.70
2017,03,12,09,43,10.70
2017,03,12,09,44,10.70
2017,03,12,09,45,10.70
2017,03,12,09,46,10.70
2017,03,12,09,47,10.70
2017,03,12,09,48,10.70
2017,03,12,09,49,10.70
2017,03,12,09,50,10.70
2017,03,12,09,51,10.70
2017,03,12,09,52,10.70
2017,03,12,09,53,10.80
2017,03,12,09,54,10.80
2017,03,12,09,55,10.80
2017,03,12,09,56,10.90
2017,03,12,09,57,10.90
2017,03,12,09,58,10.90
2017,03,12,09,59,10.90
2017,03,12,10,00,10.90
2017,03,12,10,01,10.90
2017,03,12,10,02,10.90
2017,03,12,10,03,10.90
2017,03,12,10,04,10.90
2017,03,12,10,05,10.90
2017,03,12,10,06,11.00
2017,03,12,10,07,10.90
2017,03,12,10,08,10.90
2017,03,12,10,09,10.90
2017,03,12,10,10,10.90
2017,03,12,10,11,10.90
2017,03,12,10,12,10.90
2017,03,12,10,13,10.90
2017,03,12,10,14,10.90
2017,03,12,10,15,10.90
2017,03,12,10,16,10.90
2017,03,12,10,17,10.90
2017,03,12,10,18,10.90
2017,03,12,10,19,10.90
2017,03,12,10,20,10.90
2017,03,12,10,21,10.90
2017,03,12,10,22,10.90
2017,03,12,10,23,10.90
2017,03,12,10,24,10.90
2017,03,12,10,25,10.90
2017,03,12,10,26,10.90
2017,03,12,10,27,10.90
2017,03,12,10,28,10.90
2017,03,12,10,29,10.90
2017,03,12,10,30,10.90
2017,03,12,10,31,10.90
2017,03,12,10,32,10.90
2017,03,12,10,33,11.00
2017,03,12,10,34,11.10
2017,03,12,10,35,11.10
2017,03,12,10,36,11.10
2017,03,12,10,37,11.10
2017,03,12,10,38,11.10
2017,03,12,10,39,11.10
2017,03,12,10,40,11.10
2017,03,12,10,41,11.10
2017,03,12,10,42,11.10
2017,03,12,10,43,11.20
2017,03,12,10,44,11.20
2017,03,12,10,45,11.20
2017,03,12,10,46,11.30
2017,03,12,10,47,11.30
2017,03,12,10,48,11.40
2017,03,12,10,49,11.40
2017,03,12,10,50,11.40
2017,03,12,10,51,11.40
2017,03,12,10,52,11.40
2017,03,12,10,53,11.40
2017,03,12,10,54,11.40
2017,03,12,10,55,11.40
2017,03,12,10,56,11.40
2017,03,12,10,57,11.40
2017,03,12,10,58,11.40
2017,03,12,10,59,11.40
2017,03,12,11,00,11.40
2017,03,12,11,01,11.40
2017,03,12,11,02,11.40
2017,03,12,11,03,11.40
2017,03,12,11,04,11.40
2017,03,12,11,05,11.40
2017,03,12,11,06,11.30
2017,03,12,11,07,11.30
2017,03,12,11,08,11.30
2017,03,12,11,09,11.20
2017,03,12,11,10,11.20
2017,03,12,11,11,11.20
2017,03,12,11,12,11.30
2017,03,12,11,13,11.20
2017,03,12,11,14,11.20
2017,03,12,11,15,11.10
2017,03,12,11,16,11.10
2017,03,12,11,17,11.10
2017,03,12,11,18,11.10
2017,03,12,11,19,11.10
2017,03,12,11,20,11.20
2017,03,12,11,21,11.20
2017,03,12,11,22,11.20
2017,03,12,11,23,11.20
2017,03,12,11,24,11.20
2017,03,12,11,25,11.20
2017,03,12,11,26,11.20
2017,03,12,11,27,11.10
2017,03,12,11,28,11.10
2017,03,12,11,29,11.10
2017,03,12,11,30,11.10
2017,03,12,11,31,11.10
2017,03,12,11,32,11.10
2017,03,12,11,33,11.10
2017,03,12,11,34,11.10
2017,03,12,11,35,11.10
2017,03,12,11,36,11.10
2017,03,12,11,37,11.10
2017,03,12,11,38,11.10
2017,03,12,11,39,11.10
2017,03,12,11,40,11.10
2017,03,12,11,41,11.20
2017,03,12,11,42,11.20
2017,03,12,11,43,11.20
2017,03,12,11,44,11.20
2017,03,12,11,45,11.20
2017,03,12,11,46,11.30
2017,03,12,11,47,11.30
2017,03,12,11,48,11.20
2017,03,12,11,49,11.20
2017,03,12,11,50,11.20
2017,03,12,11,51,11.20
2017,03,12,11,52,11.10
2017,03,12,11,53,11.20
2017,03,12,11,54,11.20
2017,03,12,11,55,11.20
2017,03,12,11,56,11.10
2017,03,12,11,57,11.10
2017,03,12,11,58,11.10
2017,03,12,11,59,11.10
2017,03,12,12,00,11.10
2017,03,12,12,01,11.10
2017,03,12,12,02,11.10
2017,03,12,12,03,11.10
2017,03,12,12,04,11.10
2017,03,12,12,05,11.20
2017,03,12,12,06,11.10
2017,03,12,12,07,11.10
2017,03,12,12,08,11.10
2017,03,12,12,09,11.10
2017,03,12,12,10,11.10
2017,03,12,12,11,11.10
2017,03,12,12,12,11.20
2017,03,12,12,13,11.20
2017,03,12,12,14,11.30
2017,03,12,12,15,11.30
2017,03,12,12,16,11.30
2017,03,12,12,17,11.30
2017,03,12,12,18,11.30
2017,03,12,12,19,11.20
2017,03,12,12,20,11.20
2017,03,12,12,21,11.20
2017,03,12,12,22,11.20
2017,03,12,12,23,11.30
2017,03,12,12,24,11.20
2017,03,12,12,25,11.20
2017,03,12,12,26,11.20
2017,03,12,12,27,11.20
2017,03,12,12,28,11.20
2017,03,12,12,29,11.20
2017,03,12,12,30,11.20
2017,03,12,12,31,11.30
2017,03,12,12,32,11.40
2017,03,12,12,33,11.40
2017,03,12,12,34,11.50
2017,03,12,12,35,11.50
2017,03,12,12,36,11.40
2017,03,12,12,37,11.40
2017,03,12,12,38,11.50
2017,03,12,12,39,11.60
2017,03,12,12,40,11.70
2017,03,12,12,41,11.70
2017,03,12,12,42,11.60
2017,03,12,12,43,11.60
2017,03,12,12,44,11.60
2017,03,12,12,45,11.50
2017,03,12,12,46,11.40
2017,03,12,12,47,11.50
2017,03,12,12,48,11.60
2017,03,12,12,49,11.60
2017,03,12,12,50,11.50
2017,03,12,12,51,11.50
2017,03,12,12,52,11.60
2017,03,12,12,53,11.60
2017,03,12,12,54,11.70
2017,03,12,12,55,11.70
2017,03,12,12,56,11.70
2017,03,12,12,57,11.70
2017,03,12,12,58,11.60
2017,03,12,12,59,11.60
2017,03,12,13,00,11.60
2017,03,12,13,01,11.60
2017,03,12,13,02,11.60
2017,03,12,13,03,11.60
2017,03,12,13,04,11.60
2017,03,12,13,05,11.60
2017,03,12,13,06,11.60
2017,03,12,13,07,11.60
2017,03,12,13,08,11.60
2017,03,12,13,09,11.60
2017,03,12,13,10,11.70
2017,03,12,13,11,11.70
2017,03,12,13,12,11.70
2017,03,12,13,13,11.70
2017,03,12,13,14,11.70
2017,03,12,13,15,11.70
2017,03,12,13,16,11.80
2017,03,12,13,17,11.80
2017,03,12,13,18,11.80
2017,03,12,13,19,11.80
2017,03,12,13,20,11.80
2017,03,12,13,21,11.80
2017,03,12,13,22,11.80
2017,03,12,13,23,11.80
2017,03,12,13,24,11.80
2017,03,12,13,25,11.90
2017,03,12,13,26,11.90
2017,03,12,13,27,11.90
2017,03,12,13,28,11.90
2017,03,12,13,29,12.00
2017,03,12,13,30,12.00
2017,03,12,13,31,12.10
2017,03,12,13,32,12.10
2017,03,12,13,33,12.10
2017,03,12,13,34,12.10
2017,03,12,13,35,12.20
2017,03,12,13,36,12.20
2017,03,12,13,37,12.10
2017,03,12,13,38,12.10
2017,03,12,13,39,12.00
2017,03,12,13,40,12.00
2017,03,12,13,41,11.90
2017,03,12,13,42,11.80
2017,03,12,13,43,11.70
2017,03,12,13,44,11.80
2017,03,12,13,45,11.80
2017,03,12,13,46,11.80
2017,03,12,13,47,11.80
2017,03,12,13,48,11.70
2017,03,12,13,49,11.80
2017,03,12,13,50,11.80
2017,03,12,13,51,11.80
2017,03,12,13,52,11.80
2017,03,12,13,53,11.80
2017,03,12,13,54,11.70
2017,03,12,13,55,11.60
2017,03,12,13,56,11.60
2017,03,12,13,57,11.60
2017,03,12,13,58,11.60
2017,03,12,13,59,11.50
2017,03,12,14,00,11.40
2017,03,12,14,01,11.40
2017,03,12,14,02,11.40
2017,03,12,14,03,11.40
2017,03,12,14,04,11.40
2017,03,12,14,05,11.40
2017,03,12,14,06,11.40
2017,03,12,14,07,11.40
2017,03,12,14,08,11.30
2017,03,12,14,09,11.30
2017,03,12,14,10,11.30
2017,03,12,14,11,11.30
2017,03,12,14,12,11.30
2017,03,12,14,13,11.40
2017,03,12,14,14,11.40
2017,03,12,14,15,11.30
2017,03,12,14,16,11.30
2017,03,12,14,17,11.30
2017,03,12,14,18,11.30
2017,03,12,14,19,11.40
2017,03,12,14,20,11.40
2017,03,12,14,21,11.40
2017,03,12,14,22,11.40
2017,03,12,14,23,11.40
2017,03,12,14,24,11.50
2017,03,12,14,25,11.50
2017,03,12,14,26,11.40
2017,03,12,14,27,11.40
2017,03,12,14,28,11.40
2017,03,12,14,29,11.50
2017,03,12,14,30,11.40
2017,03,12,14,31,11.40
2017,03,12,14,32,11.40
2017,03,12,14,33,11.40
2017,03,12,14,34,11.40
2017,03,12,14,35,11.50
2017,03,12,14,36,11.60
2017,03,12,14,37,11.50
2017,03,12,14,38,11.40
2017,03,12,14,39,11.40
2017,03,12,14,40,11.40
2017,03,12,14,41,11.50
2017,03,12,14,42,11.60
2017,03,12,14,43,11.60
2017,03,12,14,44,11.60
2017,03,12,14,45,11.60
2017,03,12,14,46,11.70
2017,03,12,14,47,11.70
2017,03,12,14,48,11.70
2017,03,12,14,49,11.70
2017,03,12,14,50,11.70
2017,03,12,14,51,11.70
2017,03,12,14,52,11.60
2017,03,12,14,53,11.60
2017,03,12,14,54,11.60
2017,03,12,14,55,11.60
2017,03,12,14,56,11.60
2017,03,12,14,57,11.70
2017,03,12,14,58,11.70
2017,03,12,14,59,11.70
2017,03,12,15,00,11.80
2017,03,12,15,01,11.80
2017,03,12,15,02,11.80
2017,03,12,15,03,11.80
2017,03,12,15,04,11.70
2017,03,12,15,05,11.70
2017,03,12,15,06,11.70
2017,03,12,15,07,11.70
2017,03,12,15,08,11.70
2017,03,12,15,09,11.80
2017,03,12,15,10,11.70
2017,03,12,15,11,11.70
2017,03,12,15,12,11.70
2017,03,12,15,13,11.70
2017,03,12,15,14,11.70
2017,03,12,15,15,11.70
2017,03,12,15,16,11.80
2017,03,12,15,17,11.80
2017,03,12,15,18,11.80
2017,03,12,15,19,11.90
2017,03,12,15,20,12.00
2017,03,12,15,21,12.10
2017,03,12,15,22,12.10
2017,03,12,15,23,12.20
2017,03,12,15,24,12.30
2017,03,12,15,25,12.30
2017,03,12,15,26,12.40
2017,03,12,15,27,12.40
2017,03,12,15,28,12.40
2017,03,12,15,29,12.30
2017,03,12,15,30,12.30
2017,03,12,15,31,12.20
2017,03,12,15,32,12.20
2017,03,12,15,33,12.10
2017,03,12,15,34,12.00
2017,03,12,15,35,12.00
2017,03,12,15,36,11.90
2017,03,12,15,37,11.90
2017,03,12,15,38,11.90
2017,03,12,15,39,11.90
2017,03,12,15,40,12.00
2017,03,12,15,41,12.00
2017,03,12,15,42,12.10
2017,03,12,15,43,12.10
2017,03,12,15,44,12.10
2017,03,12,15,45,12.10
2017,03,12,15,46,12.20
2017,03,12,15,47,12.20
2017,03,12,15,48,12.10
2017,03,12,15,49,12.10
2017,03,12,15,50,12.00
2017,03,12,15,51,12.00
2017,03,12,15,52,12.00
2017,03,12,15,53,12.00
2017,03,12,15,54,12.00
2017,03,12,15,55,11.90
2017,03,12,15,56,11.90
2017,03,12,15,57,12.00
2017,03,12,15,58,12.00
2017,03,12,15,59,12.10
2017,03,12,16,00,12.10
2017,03,12,16,01,12.10
2017,03,12,16,02,12.10
2017,03,12,16,03,12.10
2017,03,12,16,04,12.10
2017,03,12,16,05,12.10
2017,03,12,16,06,12.20
2017,03,12,16,07,12.10
2017,03,12,16,08,12.10
2017,03,12,16,09,12.00
2017,03,12,16,10,12.00
2017,03,12,16,11,12.00
2017,03,12,16,12,12.10
2017,03,12,16,13,12.10
2017,03,12,16,14,12.10
2017,03,12,16,15,12.00
2017,03,12,16,16,12.00
2017,03,12,16,17,12.00
2017,03,12,16,18,12.00
2017,03,12,16,19,12.00
2017,03,12,16,20,12.00
2017,03,12,16,21,12.00
2017,03,12,16,22,12.00
2017,03,12,16,23,11.90
2017,03,12,16,24,12.00
2017,03,12,16,25,12.00
2017,03,12,16,26,12.00
2017,03,12,16,27,12.00
2017,03,12,16,28,12.00
2017,03,12,16,29,12.00
2017,03,12,16,30,12.00
2017,03,12,16,31,12.00
2017,03,12,16,32,12.00
2017,03,12,16,33,12.00
2017,03,12,16,34,12.10
2017,03,12,16,35,12.20
2017,03,12,16,36,12.20
2017,03,12,16,37,12.30
2017,03,12,16,38,12.30
2017,03,12,16,39,12.30
2017,03,12,16,40,12.10
2017,03,12,16,41,12.10
2017,03,12,16,42,12.00
2017,03,12,16,43,11.90
2017,03,12,16,44,11.80
2017,03,12,16,45,11.70
2017,03,12,16,46,11.70
2017,03,12,16,47,11.70
2017,03,12,16,48,11.70
2017,03,12,16,49,11.60
2017,03,12,16,50,11.60
2017,03,12,16,51,11.60
2017,03,12,16,52,11.70
2017,03,12,16,53,11.70
2017,03,12,16,54,11.60
2017,03,12,16,55,11.60
2017,03,12,16,56,11.60
2017,03,12,16,57,11.60
2017,03,12,16,58,11.60
2017,03,12,16,59,11.60
2017,03,12,17,00,11.60
2017,03,12,17,01,11.60
2017,03,12,17,02,11.60
2017,03,12,17,03,11.60
2017,03,12,17,04,11.60
2017,03,12,17,05,11.50
2017,03,12,17,06,11.50
2017,03,12,17,07,11.60
2017,03,12,17,08,11.50
2017,03,12,17,09,11.40
2017,03,12,17,10,11.40
2017,03,12,17,11,11.50
2017,03,12,17,12,11.50
2017,03,12,17,13,11.50
2017,03,12,17,14,11.50
2017,03,12,17,15,11.60
2017,03,12,17,16,11.60
2017,03,12,17,17,11.60
2017,03,12,17,18,11.60
2017,03,12,17,19,11.60
2017,03,12,17,20,11.60
2017,03,12,17,21,11.60
2017,03,12,17,22,11.60
2017,03,12,17,23,11.60
2017,03,12,17,24,11.70
2017,03,12,17,25,11.70
2017,03,12,17,26,11.70
2017,03,12,17,27,11.70
2017,03,12,17,28,11.80
2017,03,12,17,29,11.80
2017,03,12,17,30,11.80
2017,03,12,17,31,11.80
2017,03,12,17,32,11.80
2017,03,12,17,33,11.70
2017,03,12,17,34,11.70
2017,03,12,17,35,11.70
2017,03,12,17,36,11.70
2017,03,12,17,37,11.70
2017,03,12,17,38,11.70
2017,03,12,17,39,11.70
2017,03,12,17,40,11.70
2017,03,12,17,41,11.60
2017,03,12,17,42,11.60
2017,03,12,17,43,11.60
2017,03,12,17,44,11.60
2017,03,12,17,45,11.40
2017,03,12,17,46,11.40
2017,03,12,17,47,11.30
2017,03,12,17,48,11.30
2017,03,12,17,49,11.30
2017,03,12,17,50,11.20
2017,03,12,17,51,11.20
2017,03,12,17,52,11.10
2017,03,12,17,53,11.10
2017,03,12,17,54,11.10
2017,03,12,17,55,11.00
2017,03,12,17,56,10.90
2017,03,12,17,57,10.90
2017,03,12,17,58,10.90
2017,03,12,17,59,10.90
2017,03,12,18,00,10.90
2017,03,12,18,01,10.90
2017,03,12,18,02,10.90
2017,03,12,18,03,10.90
2017,03,12,18,04,10.90
2017,03,12,18,05,10.90
2017,03,12,18,06,10.90
2017,03,12,18,07,10.90
2017,03,12,18,08,10.90
2017,03,12,18,09,10.90
2017,03,12,18,10,10.90
2017,03,12,18,11,10.90
2017,03,12,18,12,10.90
2017,03,12,18,13,10.90
2017,03,12,18,14,10.90
2017,03,12,18,15,10.90
2017,03,12,18,16,10.90
2017,03,12,18,17,10.90
2017,03,12,18,18,10.90
2017,03,12,18,19,10.90
2017,03,12,18,20,10.90
2017,03,12,18,21,10.90
2017,03,12,18,22,10.90
2017,03,12,18,23,10.90
2017,03,12,18,24,10.90
2017,03,12,18,25,10.90
2017,03,12,18,26,10.90
2017,03,12,18,27,10.90